Location: Lombard
(41.8800°N, 88.0080°W)
Time: 05:14:54
(UTC-05:00)

Vanguard 2 Rocket - Pass Details

Date: 25 February 2024
Orbit: 555 x 3307 km, 32.9° (Epoch: 12 April)

Event Time Altitude Azimuth Distance (km) Brightness Sun altitude
Rises 16:07:53 0° 258° (WSW) 4,701 12.1 14.8°
Reaches altitude 10° 16:10:32 10° 255° (WSW) 4,014 12.4 14.4°
Maximum altitude 16:21:48 60° 179° (S) 2,736 9.7 12.5°
Drops below altitude 10° 16:39:54 10° 106° (ESE) 6,147 10.7 9.4°
Sets 16:45:05 0° 104° (ESE) 7,273 11.0 8.5°
